Regional Weather Roundup
Issued by NWS

Home | Current Version | Previous Version | Text Only | Print | Product List | Glossary Off
Versions: 1 2 3 4 5 6 7 8 9 10 11 12 13 14 15 16 17 18 19 20 21 22 23 24 25 26 27 28 29 30 31 32 33 34 35 36 37 38 39 40 41 42 43 44 45 46 47 48 49 50

000
ASUS45 KBOU 281707
RWRCO

WEATHER ROUNDUP FOR COLORADO
NATIONAL WEATHER SERVICE DENVER/BOULDER CO
1000 AM MST FRI NOV 28 2014

NOTE: "FAIR" INDICATES FEW OR NO CLOUDS BELOW 12000 FEET WITH NO
SIGNIFICANT WEATHER AND/OR OBSTRUCTIONS TO VISIBILITY.

COZ001>005-013-030-031-281800-
...NORTHWEST COLORADO...

CITY           SKY/WX    TMP DP  RH WIND       PRES   REMARKS
CRAIG          MOSUNNY   36  26  67 CALM      30.14F
HAYDEN         MOSUNNY   30  19  64 SE5       30.15S WCI  25
MEEKER         MOSUNNY   43  23  45 CALM      30.15F
MOUNT WERNER   NOT AVBL
STEAMBOAT SPGS MOSUNNY   21  19  92 CALM      30.16S
WALDEN         CLOUDY    43  14  31 S9        30.13F
$$

COZ006>008-011-281800-
...WEST CENTRAL VALLEYS...

CITY           SKY/WX    TMP DP  RH WIND       PRES   REMARKS
GRAND JUNCTION SUNNY     38  25  59 SE3       30.20F
MONTROSE       SUNNY     44  22  41 CALM      30.22F
EAGLE          PTSUNNY   30  27  86 CALM      30.24F
RIFLE          MOSUNNY   35  27  72 CALM      30.22F
DELTA          SUNNY     39  26  58 CALM      30.22F
NUCLA          SUNNY     41  21  45 CALM      30.27F
$$

COZ017>023-064>068-281800-
...SOUTHWEST COLORADO...

CITY           SKY/WX    TMP DP  RH WIND       PRES   REMARKS
DURANGO        SUNNY     41  24  51 CALM      30.29F
CORTEZ         SUNNY     44  19  36 CALM      30.27S
PAGOSA SPRINGS SUNNY     43  19  37 E3        30.32S
TELLURIDE      SUNNY     41  11  29 SE6       30.33F
WOLF CREEK PAS SUNNY     32   3  29 MISG      30.41S
$$

COZ009-010-012-014-032>034-037-058>063-281800-
...CENTRAL COLORADO...

CITY           SKY/WX    TMP DP  RH WIND       PRES   REMARKS
ASPEN          SUNNY     38  18  44 CALM      30.21F
BUENA VISTA    SUNNY     55  -1  10 SW21G30   30.16S
COPPER MTN     SUNNY     37   1  22 W28G35    30.33S
BERTHOUD PASS  NOT AVBL
COTTONWOOD PAS SUNNY     46 -15   7 W30G52    30.19S
GUNNISON       SUNNY     19  16  86 CALM      30.37F
KREMMLING      SUNNY     32  23  69 CALM      30.19F
LEADVILLE      SUNNY     44   2  17 NE9       30.25S
MONARCH PASS   SUNNY     30   1  29 W45G54    30.43S WCI  12
SALIDA         SUNNY     58   1  10 SW18G28   30.21F
SUNLIGHT       MOSUNNY   36  19  51 CALM      30.31F
WILKERSON PASS MOSUNNY   37  -4  17 W15G26    30.24F
$$

COZ069>075-281800-
...SAN LUIS VALLEY/SANGRE DE CRISTO MOUNTAINS...

CITY           SKY/WX    TMP DP  RH WIND       PRES   REMARKS
ALAMOSA        SUNNY     35  16  45 VRB3      30.26F
LA VETA PASS   PTSUNNY   34  10  37 S14G29    30.21S WCI  24
SAGUACHE       SUNNY     39  18  41 SE5       30.27F
$$

COZ035-036-038>040-281800-
...NORTHERN COLORADO FRONT RANGE...

CITY           SKY/WX    TMP DP  RH WIND       PRES   REMARKS
DENVER INTL AP CLOUDY    59  17  19 SE3       29.94F
DMNS CITY PARK   N/A     54  16  22 E5        29.93F
AURORA         PTSUNNY   54  23  29 E6        29.97S
FRONT RANGE AP PTSUNNY   57  27  30 CALM      29.96S
ERIE MUNI ARPT CLOUDY    64   5   9 SW13G18   29.92S
BOULDER MUN AP CLOUDY    59  14  17 NE9       29.90F
CENTENNIAL     CLOUDY    55  15  20 S7        29.96F
BROOMFIELD     NOT AVBL
FORT COLLINS   CLOUDY    50  21  32 NW8       29.93F
LONGMONT       CLOUDY    67   7   9 NW17G32   29.92S
$$

COZ041-046-047-076>085-087-088-281800-
...PIKES PEAK/PALMER DIVIDE AND SOUTHERN FOOTHILLS...

CITY           SKY/WX    TMP DP  RH WIND       PRES   REMARKS
COLO. SPRINGS  CLOUDY    55  11  17 VRB5      30.03F
A. F. ACADEMY  CLOUDY    48  13  24 E2        30.02F
ELLICOTT       NOT AVBL
FALCON         NOT AVBL
FORT CARSON    CLOUDY    51  17  25 N8        30.00F
LIMON          PTSUNNY   57  18  21 NW3       29.97F
MONUMENT HILL  CLOUDY    54  12  19 SW5       30.03S
TRINIDAD       PTSUNNY   55  21  26 NW6       30.05F
$$

COZ042>045-048>051-090-091-281800-
...NORTHEAST COLORADO...

CITY           SKY/WX    TMP DP  RH WIND       PRES   REMARKS
GREELEY ARPT   CLOUDY    39  25  56 NE3       29.93S
AKRON          PTSUNNY   53  23  31 W10       29.93S
BURLINGTON     MOSUNNY   69  17  13 W9        29.92F
WRAY           SUNNY     66  24  20 W10       29.89S
STERLING       PTSUNNY   41  32  70 SW10      29.90F
HOLYOKE        SUNNY     63  30  29 W16       29.87S
FORT MORGAN    PTSUNNY   45  24  44 W6        29.94R
$$

COZ086-089-092>099-281800-
...SOUTHEAST COLORADO...

CITY           SKY/WX    TMP DP  RH WIND       PRES   REMARKS
PUEBLO         CLOUDY    50  23  34 VRB6      29.99F
LA JUNTA       CLOUDY    57  23  26 W10       29.96F
LAMAR          SUNNY     57  24  28 W8        29.93F
SPRINGFIELD      N/A     72  12  10 W12G18    29.96F
$$


USA.gov is the U.S. government's official web portal to all federal, state and local government web resources and services.